STARLINK-5582, 56777

Orbit data source: Space-Track

STARLINK-5582, 56777 is a payload satellite owned by SpaceX/Seattle (US) in LEO that was launched on Wed, 31 May 2023 UTC via an FALCON 9 launch vehicle from the Air Force Western Test Range (AFWTR). Payload-class satellites include a variety of spacecraft equipped with specific instruments for various scientific and technological missions. These include communications satellites like Starlink; space stations such as the ISS; scientific satellites like the Hubble; Earth observation satellites from companies like Planet Labs, Umbra, and HawkEye 360; GPS; miniature CubeSats for education and research; and military/defense satellites.

Loading next visibility...
Identifier
56777, 2023-078L
Orbit
LEO
Country
Flag of USUS
Related business
Manufacturer
SpaceX/Seattle
Mission
Operational Commercial Communications
Bus & Motor
STARLINK, Unknown motor
Mass
305 kg wet, ~290 kg dry
Launch date (UTC)
2023-05-31 (3 years ago)
Launch vehicle
FALCON 9
Launch site
Air Force Western Test Range (AFWTR)
Object type
Payload
Rocket body
Debris
Shape & HBR
Box + 1 Pan, 10.1 m
Radar Cross Section
11.087 m², Large (>1 m²)

Expand to show TLE details & history
Last TLE update: 2 days ago

TLE from 2 days ago
0 STARLINK-5582
1 56777U 23078L   26171.22239799  .00000150  00000-0  20361-4 0  9994
2 56777  70.0001  86.1378 0002902 269.5514  90.5312 14.98332528168033
Epoch: 2026-06-20T05:20Z
TLE epoch observation values (Epoch: 2026-06-20T05:20:15.186Z)
Latitude
-0.00007°
Longitude
97.63438°
Altitude
574.491 km
Speed
7.574 km/s
True Right ascension
05h 44m 33s
True Declination
0° 00' 00"
Sunlit
Object was in daylight at epoch
Visualization orbit readout
Latitude
Unknown
Longitude
Unknown
Altitude
Unknown
Speed
Unknown
Apparent Right ascension
Unknown
Apparent Declination
Unknown
Sunlit
N/A
Visualization observer readout
Local Sidereal Time
21:31:32
Azimuth
Unknown
Elevation
Unknown
Doppler factor
Unknown
Orbital elements
Apogee altitude
572.013 km
Perigee altitude
567.98 km
Semi-major axis
6,948.133 km
Eccentricity
0.00029
Inclination
70.0001°
RAAN
86.1378°
Arg. of periapsis
269.5514°
True anomaly
90.56445°
Mean anomaly
90.5312°
Eccentric anomaly
90.54783°
Mean motion
3.74749 °/min
Orbital period
96.06 mins
BSTAR
0.000020361
Loading maneuver chart data...
Computing Atmospheric mass density...
Loading historical data...
Loading historical data...
Loading historical data...
Loading historical data...
Loading historical data...
Loading historical data...
Loading historical data...

Documentation

Showing up to 5 results
|